ASTROCAST-0304

导读 | 星芒AI

ASTROCAST-0304 是由 ASTROCAST 公司研发的低轨物联网卫星,旨在提供全球范围的机器对机器(M2M)通信服务。该卫星采用纳米卫星平台,运行于低地球轨道,主要面向远程监测、物流跟踪和环境监测等应用。ASTROCAST-0304 与同系列其他卫星协同工作,构建低功耗广域网(LPWAN),支持设备在无蜂窝网络覆盖区域的数据传输。该卫星于2023年发射,是 ASTROCAST 扩展其物联网星座计划的重要组成部分。

基本信息
目录编号:
54367
目录名称:
ASTROCAST-0304
国际标识:
2022-158G
轨道中心:
EARTH
卫星名称:
ASTROCAST-0304
卫星全名:
--
卫星状态:
已陨落 最后检测时间 2025-08-25
发射日期:
2022-11-26 UTC
国别 :
瑞士 (CH)
星等 :
--
轨道信息
数据来源 国际轨道数据
星历时间: 2025-08-22T13:47:10+0800
轨道信息已过期115天
半长轴: 6639.676km
偏心率: 0.0016994
轨道倾角: 97.419°
近地点辐角 286.134°
升交点赤经 358.572°
平近点角 73.807°
近地点: 250.257km
远地点: 272.825km
周期: 89.739分钟
每日圈数: 16.04658
详细信息
使用方式:
暂无